Location: Roanoke
(37.2710°N, 79.9420°W)
Time: 07:12:15
(UTC-04:00)

ISS - Visible Passes

Search period start: 20 October 2019 00:00
Search period end: 30 October 2019 00:00
Orbit: 411 x 421 km, 51.6° (Epoch: 20 October)

Date Brightness Start Highest point End Pass type
(mag) Time Alt. Az. Time Alt. Az. Time Alt. Az.
22 Oct -1.7 06:59:18 10° SSW 07:02:17 30° SE 07:05:16 10° ENE visible
23 Oct -0.8 06:11:39 10° S 06:13:50 16° SE 06:16:02 10° E visible
24 Oct -3.8 06:58:18 10° SW 07:01:40 82° NW 07:05:02 10° NE visible
25 Oct -3.0 06:11:17 23° SSW 06:13:05 51° SE 06:16:22 10° ENE visible
26 Oct -1.4 05:25:27 23° ESE 05:25:27 23° ESE 05:27:27 10° ENE visible
26 Oct -2.7 06:58:24 11° W 07:01:13 29° NNW 07:04:14 10° NNE visible
27 Oct -3.5 06:12:22 49° NW 06:12:30 49° NW 06:15:47 10° NE visible
28 Oct -1.2 05:26:09 19° NE 05:26:09 19° NE 05:27:12 10° NE visible
28 Oct -1.7 06:59:04 11° WNW 07:00:58 15° NNW 07:03:02 10° NNE visible
29 Oct -1.9 06:12:43 20° NNW 06:12:43 20° NNW 06:14:45 10° NNE visible
